Flag for U.S.A. Weather past 2 weeks in Salt Lake City, Utah, U.S.A.

Now
83 °F

Passing clouds.


Feels Like: 83 °F
Forecast: 70 / 85 °F
Wind: 10 mph from North

Location: Salt Lake City International Airport

Current Time: Jul 5, 2015 at 9:40:37 PM

Latest Report: Jul 5, 2015 at 8:53 PM


Visibility: 10 mi

Pressure: 29.81 "Hg (25.69 "Hg at 1312m altitude)

Humidity: 44%

Dew point: 59 °F

Location of Salt Lake CityLocation

Historic Weather in Salt Lake City — Graph

°F

Salt Lake City temperature yesterday

Maximum temperature yesterday: 99 °F (at 4:53 PM)
Minimum temperature yesterday: 79 °F (at 5:53 AM)
Average temperature yesterday: 87 °F

Past Weeks' High & Low Weather Summary

 TemperatureHumidityPressure
High103 °F (Jun 29, 5:53 PM)93% (Jul 5, 9:53 AM)29.98 "Hg (Jul 5, 9:53 AM)
Low65 °F (Jun 21, 4:53 AM)11% (Jun 21, 11:53 AM)29.62 "Hg (Jul 4, 6:53 PM)
Average85 °F30%29.81 "Hg
* Reported Jun 20 7:53 PM — Jul 5 7:53 PM, Salt Lake City, Weather by CustomWeather, © 2015

Note: Actual official high and low records may vary slightly from our data, if they occured in-between our weather recording intervals... More about our weather records

Advertising

Salt Lake City weather history for previous 24 hours

 ConditionsComfort  
Time TempWeatherWind HumidityBarometerVisibility
7:53 PM
Sun, Jul 5
86 °FScattered clouds.14 mph39%29.78 "Hg10 mi
6:53 PM88 °FScattered clouds.12 mph36%29.76 "Hg10 mi
5:53 PM88 °FPassing clouds.10 mph35%29.76 "Hg10 mi
4:53 PM88 °FPassing clouds.6 mph35%29.77 "Hg10 mi
3:53 PM87 °FScattered clouds.10 mph36%29.79 "Hg10 mi
2:53 PM84 °FScattered clouds.9 mph43%29.81 "Hg10 mi
1:53 PM83 °FScattered clouds.3 mph44%29.83 "Hg10 mi
12:53 PM79 °FScattered clouds.6 mph54%29.85 "Hg10 mi
11:53 AM76 °FPartly sunny.8 mph64%29.87 "Hg10 mi
10:53 AM75 °FPartly sunny.6 mph71%29.88 "Hg10 mi
9:53 AM69 °FLight rain. Mostly cloudy.10 mph93%29.89 "Hg8 mi
8:53 AM75 °FMostly cloudy.3 mph64%29.86 "Hg10 mi
7:53 AM76 °FBroken clouds.6 mph62%29.83 "Hg10 mi
6:53 AM77 °FMostly cloudy.5 mph58%29.80 "Hg10 mi
5:53 AM78 °FMostly cloudy.No wind52%29.76 "Hg10 mi
4:53 AM78 °FPassing clouds.No wind52%29.75 "Hg10 mi
3:53 AM79 °FLight rain. Passing clouds.5 mph48%29.74 "Hg10 mi
2:53 AM79 °FPassing clouds.3 mph47%29.73 "Hg10 mi
1:53 AM79 °FPassing clouds.6 mph48%29.73 "Hg10 mi
12:53 AM82 °FPartly cloudy.6 mph41%29.73 "Hg10 mi
11:53 PM
Sat, Jul 4
82 °FPartly cloudy.6 mph41%29.75 "Hg10 mi
10:53 PM82 °FPassing clouds.5 mph41%29.76 "Hg10 mi
9:53 PM82 °FPartly sunny.No wind41%29.74 "Hg10 mi
Weather by CustomWeather, © 2015

See weather overviewHow to use our weather pages